Race Coverage Navigation

TS # 54 / Annapolis, MD  2019

 


TS STATS
TS Distance 9.4 
Total Distance 3035.81 
Miles To Go 5.8 
TS Climbing 3014 
Total Climbing
TS  Elevation
TS  Net Elevation 4801 
Map Filename Open Map 
Directions Filename  
Latitude 39.01 
Longitude -76.57 
Google Map  TimeStation Map 


TS Arrival Data
Arr Ord  #/Name Arrival DT TS Dst Avg This TS Avg Overall
 1 377 - Christoph Strasser  06/20/2019 0:23 9.4  24.52  15.2 
 2 T411 - team alpha - tischlerei groemmer  06/21/2019 6:33 9.4  21.69  22.45 
 3 T800 - Backstedt Racing Project 14  06/21/2019 6:57 9.4  24.52  22.41 
 4 279 - Marko Baloh  06/21/2019 10:06 9.4  13.43  13 
 5 609 - Jakob Olsen  06/21/2019 12:30 9.4  20.14  12.86 
 6 T404 - Gentlemen of speed  06/21/2019 16:22 9.4  18.19  20.92 
 7 T401 - Data Techniques powered by Networks Centre  06/21/2019 20:31 9.4  141  20.33 
 8 T805 - Team Oceanside  06/21/2019 21:17 9.4  16.11  20.28 
 9 T807 - Team ZOE International  06/21/2019 21:38 9.4  20.14  20.23 
 10 T407 - Julian Becker   06/22/2019 0:02 9.4  20.14  19.87 
 11 T201 - EAT WELL  06/22/2019 1:17 9.4  20.14  19.68 
 12 T802 - Scorchers  06/22/2019 2:09 9.4  14.1  19.63 
 13 T804 - Team FSHD Skyland Trail  06/22/2019 4:23 9.4  20.89  19.36 
 14 T408 - Radeln-fuer-Kinder (Cycling-for-Kids)  06/22/2019 5:05 9.4  18.8  19.24 
 15 T416 - Team Rotary Raams Polio  06/22/2019 5:11 9.4  22.56  19.24 
 16 617 - SOLO.kiwi (Craig Harper)  06/22/2019 7:23 9.4  10.44  11.9 
 17 367 - Daniela Genovesi  06/22/2019 9:10 9.4  13.76  11.81 
 18 T808 - Antonia's Friends 2019  06/22/2019 9:21 9.4  26.86  18.77 
 19 T400 - Cantastic4  06/22/2019 10:55 9.4  12.82  18.54 
 20 416 - Leah Goldstein  06/22/2019 11:08 9.4  18.8  11.72 
 21 623 - Ultra Paka Racing Team (Daniel Polman)  06/22/2019 11:32 9.4  14.84  11.7 
 22 622 - Thomas Odom-Team Kyle Pease Foundation  06/22/2019 12:54 9.4  15.24  11.64 
 23 T406 - Operation Walk Midwest  06/22/2019 13:14 9.4  18.8  18.29 
 24 T418 - The Opportunists  06/22/2019 14:37 9.4  21.69  18.16 
 25 329 - Peter Oyler  06/22/2019 17:02 9.4  17.09  11.48 
 26 611 - Marcelo Soares " MIXIRICA "  06/22/2019 19:47 9.4  12.26  11.35 
 27 615 - Philipp Amhof  06/22/2019 20:09 9.4  13.76  11.33 
 28 T410 - Soap-Aid  06/22/2019 21:02 9.4  14.84  17.48 
 29 603 - Alan Bradley  06/22/2019 23:08 9.4  14.1  11.21 
 30 T412 - Team Aspect  06/23/2019 0:50 9.4  14.84  17.11 
 31 529 - Isa Pulver  06/23/2019 1:11 9.4  13.76  11.12 
 32 T803 - Team EndoPark  06/23/2019 1:41 9.4  16.59  17.04 
 33 T414 - Brazil Nuts  06/23/2019 3:00 9.4  9.56  16.9 
 34 T405 - High Rollers  06/23/2019 5:30 9.4  18.8  16.66 
 35 T415 - TEAM FIRE VELO 935  06/23/2019 5:48 9.4  16.11  16.65 
 36 T202 - Integra Medical - BAA Racing  06/23/2019 6:06 9.4  16.59  16.58 
 37 442 - Joe Barr  06/23/2019 7:17 9.4  7.94  10.89 
 38 T204 - Lucan CRC  06/23/2019 7:50 9.4  16.59  16.43 
 39 612 - Markus K. Brandl  06/23/2019 8:17 9.4  11.28  10.84 
 40 411 - Geoff Brunner  06/23/2019 8:44 9.4  15.67  10.84 
 41 T413 - TEAM BRASIL - SKIPPER  06/23/2019 9:14 9.4  20.89  16.33 
 42 T200 - AIR RELAX GoPro TEAM BRASIL  06/23/2019 9:33 9.4  16.11  16.27 
 43 559 - Team Martin RAAM 2019 (Martin Bergmeister)  06/23/2019 10:12 9.4  14.84  10.77 
 44 T402 - EA/WFP RAAM Team  06/23/2019 11:35 9.4  14.84  16.12 
 45 T206 - Project Linear Acceleration  06/23/2019 12:24 9.4  15.24  16.04 
 46 618 - GREGORY ROBINSON  06/23/2019 12:49 9.4  14.84  10.67 
 47 510 - John C. Tarlton  06/23/2019 13:04 9.4  10.85  10.67 
 48 610 - Kabir Rachure  06/23/2019 14:37 9.4  13.12  10.6 
 49 T801 - Mind Over Matter  06/23/2019 15:21 9.4  13.12  15.82 
 50 T417 - Team4RAAM 2019 powered by TGW Living Logistics  06/23/2019 15:22 9.4  17.09  15.82 
 51 T806 - Team SuperMarrow  06/23/2019 16:33 9.4  13.76  15.73 
 52 T403 - EKJ Denmark  06/23/2019 20:49 9.4  10.64  15.36 
 53 568 - Alexandra Meixner  06/23/2019 21:19 9.4  12  10.35 
 54 399 - Valerio Zamboni  06/24/2019 4:32 9.4  16.59  10.12 
 55 604 - Chieko Ozawa  06/24/2019 9:46 9.4  13.12  9.93 
 56 424 - Team i RON man Veterans supporting Veterans  06/24/2019 11:00 9.4  9.1  9.91 
 57 161 - Seana Hogan  06/24/2019 20:05 9.4  10.25  9.61 
 58 T210 - Bike Wine Team  06/24/2019 21:54 9.4  7.62  13.63